www.pogodaiklimat.ru
ПОГОДА в Грове
Время
(UTC), дата
11:35 15.12
11:55 15.12
12:15 15.12
12:35 15.12
12:55 15.12
13:15 15.12
13:35 15.12
13:55 15.12
14:15 15.12
14:35 15.12
14:55 15.12
15:15 15.12
15:35 15.12
15:55 15.12
16:15 15.12
16:35 15.12
16:55 15.12
17:15 15.12
17:35 15.12
17:55 15.12
18:15 15.12
18:35 15.12
18:55 15.12
19:15 15.12
19:35 15.12
19:55 15.12
20:15 15.12
20:35 15.12
20:55 15.12
21:15 15.12
21:35 15.12
21:55 15.12
22:15 15.12
22:35 15.12
22:55 15.12
23:15 15.12
23:35 15.12
23:55 15.12
00:15 15.12
00:35 15.12
00:55 15.12
01:15 15.12
01:35 15.12
01:55 15.12
02:15 15.12
02:35 15.12
02:55 15.12
03:15 15.12
Ветер
(напр.,м/с)
Видим. Явления Облачность Т
(С)
Тd
(С)
f
(%)
Тe
(С)
Тes
(С)
Комфортность P
(гПа)
Po
(гПа)
Тmin
(С)
Tmax
(С)
R
(мм)
R24
(мм)
S
(см)
СВ 4 11 км слабый дождь 10/10 300 м +1.0 0.0 93 -4 -4 982.3
СВ 3 11 км слабый дождь 10/10 300 м +1.0 0.0 93 -4 -4 982.6
В 4 11 км 10/10 300 м +1.0 0.0 93 -5 -5 981.9
СВ 4
{8}
11 км 5/5 300 м
[средняя]
+1.0 0.0 93 -5 -5 981.6
В 4 11 км 8/8 300 м
[средняя]
+1.0 0.0 93 -4 -4 982.3
СВ 3 11 км 10/10 300 м +2.0 0.0 87 -3 -3 982.6
СВ 4 11 км 8/8 300 м +2.0 0.0 87 -3 -3 981.9
В 3 16 км 5/5 300 м +2.0 0.0 87 -3 -3 982.3
В 4 11 км ясно +3.0 0.0 81 -2 -2 981.9
В 4 16 км ясно +3.0 0.0 81 -2 -2 981.9
В 4 16 км ясно +3.0 +1.0 87 -2 -1 981.6
В 4 16 км ясно +3.0 +1.0 87 -2 -1 981.6
СВ 4 16 км 5/5 420 м +3.0 +1.0 87 -2 -1 981.3
В 4 16 км 5/5 420 м +3.0 +1.0 87 -2 -1 981.3
В 4 16 км 8/8 420 м +3.0 +1.0 87 -2 -1 981.0
В 4 11 км 10/10 420 м +3.0 +1.0 87 -2 -2 981.0
В 4 6 км дымка 10/10 420 м +3.0 +1.0 87 -2 -2 980.6
В 3 5 км дымка 10/10 360 м +3.0 +2.0 93 -1 -1 980.3
В 3 3 км дымка 10/10 120 м +3.0 +2.0 93 -2 -2 980.0
В 3 3 км дымка 10/10 240 м +3.0 +2.0 93 -1 -1 979.7
СВ 1 5 км дымка 10/10 240 м +3.0 +2.0 93 0 0 980.0
СВ 2 5 км дымка 10/10 240 м +3.0 +2.0 93 -1 -1
СВ 1 4 км морось 10/10 240 м +3.0 +2.0 93 0 0 979.7
СВ 3 5 км слабая морось 10/10 120 м +3.0 +2.0 93 -1 -1 979.7
СВ 2 5 км дымка 10/10 180 м +3.0 +2.0 93 -1 -1 980.0
СВ 3 5 км дымка 10/10 180 м +3.0 +2.0 93 -1 -1 979.7
СВ 2 6 км дымка 10/10 120 м +3.0 +2.0 93 -1 -1 980.0
СВ 2 8 км дымка 10/10 180 м +3.0 +2.0 93 -1 -1 980.3
С 1 8 км дымка 10/10 180 м +3.0 +2.0 93 0 0 980.3
С 1 8 км дымка 10/10 180 м +3.0 +2.0 93 0 0 980.6
С 2 6 км дымка 10/10 180 м +3.0 +2.0 93 -1 -1 981.0
С 1 5 км дымка 10/10 180 м +3.0 +2.0 93 0 0 981.6
С 1 5 км дымка 10/10 120 м +2.0 +2.0 100 -1 -1 981.6
С 2 4 км дымка 10/10 120 м +2.0 +2.0 100 -2 -2 981.9
С 1 5 км дымка 10/10 120 м +2.0 +2.0 100 -1 -1 981.9
0 5 км дымка 10/10 120 м +2.0 +2.0 100 +1 +1 982.6
С 2 6 км дымка 10/10 180 м +2.0 +2.0 100 -2 -2 982.6
0 6 км дымка 10/10 180 м +2.0 +2.0 100 +1 +1 982.9
0 6 км дымка 10/10 180 м +2.0 +2.0 100 +1 +1 983.6
0 6 км дымка 10/10 180 м +2.0 +2.0 100 +1 +1 983.9
СЗ 3 6 км дымка 10/10 180 м +2.0 +2.0 100 -3 -3 984.2
СЗ 3 5 км дымка 10/10 120 м +2.0 +2.0 100 -3 -3 984.9
СЗ 3 6 км дымка 10/10 180 м +2.0 +2.0 100 -3 -3 985.2
СЗ 6 6 км дымка 10/10 90 м +1.0 +1.0 100 -6 -6 985.2
С 4 8 км дымка 10/10 90 м +1.0 0.0 93 -5 -5 985.6
С 4 11 км 10/10 90 м 0.0 0.0 100 -6 -6 985.2
С 1 11 км 10/10 90 м 0.0 0.0 100 -3 -3 985.6
С 2 16 км 10/10 90 м 0.0 0.0 100 -5 -5 985.2
Местоположение метеостанции Grove Municipal Airport: широта 36.6053 долгота -94.7386 высота над уровнем моря 254 м.
В архиве по умолчанию представлена погода в Грове за последние 1-2 суток. Обновление информации о фактической погоде в базе происходит ежечасно! Архивные данные за месяц целиком и за предыдущие месяцы Вы можете получить, выбрав интересующий диапазон дат из раскрывающегося списка и нажав кнопку "Ввод!".
Внимание! Архив погоды МЕТАР в базе сайта по станциям, не включенным в климатический монитор, хранится не более 60 дней. Нет смысла пытаться выбрать более раннюю дату.
*Определитесь, кто Вы:
Внимание! Время в таблицах - всемирное. Для получения местного времени необходимо прибавить поправку, которая равна ч.
Смотрите также архив погоды в соседних городах и на ближайших метеорологических станциях:
Партнеры нашего сайта:      
Пояснения к столбцам:
  • Ветер - указаны скорость ветра в м/с - средняя за 10 мин, порывы в срок и между сроками (в фигурных скобках) и направление, откуда дует ветер: С - северный,
  • СВ - северо-восточный, В - восточный, ЮВ - юго-восточный, Ю - южный, ЮЗ - юго-западный, З - западный, СЗ - северо-западный.
  • Видимость - горизонтальная дальность видимости в метрах или километрах. При видимости от 1 до 10 км при отсутствии осадков обычно наблюдается дымка, при ухудшении видимости до 1 км и менее - туман. В сухую погоду видимость может ухудшаться дымом, пылью или мглою.
  • Явления - указаны атмосферные явления, наблюдавшиеся в срок или в последний час перед сроком; фигурными скобками обозначены явления, наблюдавшиеся между сроками (за 1-3 часа до срока); квадратными скобками обозначены град или гололедные отложения с указанием их диаметра в мм.
  • Облачность - указаны через наклонную черту общая и нижняя облачность в баллах и высота нижней границы облаков в метрах; квадратными скобками обозначены формы облаков: Ci - перистые, Cs - перисто-слоистые, Cc - перисто-кучевые, Ac - высококучевые, As - высокослоистые, Sc - слоисто-кучевые, Ns - слоисто-дождевые, Cu - кучевые, Cb - кучево-дождевые. Подробнее классификацию облаков см. в Атласе облаков (PDF).
  • T - Температура воздуха - температура, измеренная на высоте 2 м над землей.
  • Td - Температура точки росы - температура, при понижении до которой содержащийся в воздухе водяной пар достигнет насыщения.
  • f - Относительная влажность воздуха - влажноcть воздуха, измеренная на высоте 2 м над землей.
  • Te - Эффективная температура - температура, которую ощущает одетый по сезону человек в тени. Характеристика душности погоды. При расчете учитывается влияние влажности воздуха и скорости ветра на теплоощущения человека.
  • Tes - Эффективная температура на солнце - температура, которую ощущает человек, с поправкой на солнечный нагрев. Характеристика знойности погоды. Зависит от высоты солнца над горизонтом, облачности и скорости ветра. Ночью, в пасмурную погоду, а также при ветре 12 м/с и более поправка равна нулю.
  • P - Атмосферное давление - приведенное к уровню моря атмосферное давление.
  • Po - Атмосферное давление - измеренное на уровне метеостанции атмосферное давление.
  • Tmin - Минимальная температура - минимум температуры воздуха на высоте 2 м над землей.
  • Tmax - Максимальная температура - максимум температуры воздуха на высоте 2 м над землей.
  • R - Количество осадков - Количество выпавших осадков за период времени, мм. При наведении курсора мыши на число - период времени, за который выпало указанное количество осадков.
  • R24 - Количество осадков - Количество выпавших осадков за 24 часа, мм.
  • S - Снежный покров - Высота снежного покрова, см. При наведении курсора мыши на число - состояние снежного покрова и степень покрытия местности в баллах.